www.pogodaiklimat.ru

Погода и климат >> Архив погоды >> Китай >> Синьцзян-Уйгурский автономный район >> Цзяньфан


ПОГОДА в Цзяньфане

  • Прогноз погоды в Цзяньфане
  • Монитор погоды в Цзяньфане

АРХИВ ПОГОДЫ в Цзяньфане

Время (UTC), дата Ветер
(напр.,м/с)
 
Видим.   Явления Облачность Т
(С)
Тd
(С)
f
(%)
Тe
(С)
Тes
(С)
Комфортность P
(гПа)
Po
(гПа)
Тmin
(С)
Tmax
(С)
R
(мм)
R24
(мм)
S
(см)
00 13.05 СВ 10 20 км 3/3
[]
+18.2 -10.7 13 +17 +17 1008.3 918.8
03 13.05 С 8 19 км 9/9
[]
+22.4 -9.5 11 +20 +21 1007.6 919.4
06 13.05 З 5 18 км 8/8
[]
+25.6 -11.1 8 +22 +24 комфорт 1004.9 917.9 +15.5
09 13.05 З 4 17 км 9/9 1500 м
[]
+26.8 -11.9 7 +23 +24 комфорт 1002.0 915.5
12 13.05 С 15
{18}
21 км 9/9 1500 м
[]
+23.5 -2.2 18 +22 +22 комфорт 1002.5 915.1
18 13.05 С 15
{25}
28 км ?/? +16.7 +1.6 36 +15 +15 1004.1 923.8 +27.2
21 13.05 С 13
{25}
30 км ?/? +15.1 +0.9 38 +13 +13 1003.7 913.7
00 14.05 С 17
{24}
30 км 9/9
[]
+13.9 +0.5 40 +10 +10 1005.6 915.1
03 14.05 СВ 9
{23}
30 км 9/9 1500 м
[]
+14.7 -0.2 36 +13 +13 1006.9 916.5
06 14.05 С 19
{27}
29 км 9/9 1500 м
[]
+16.9 -3.2 25 +15 +15 1008.3 918.5 +13.6
09 14.05 С 23
{27}
27 км 9/9 1500 м
[]
+17.9 -7.5 17 +16 +16 1009.0 919.4
12 14.05 С 17
{29}
30 км 9/9 1500 м
[]
+17.0 -6.8 19 +15 +15 1010.5 920.5
18 14.05 С 7
{20}
30 км ?/? +12.8 -5.7 27 +11 +11 1011.8 920.4 +20.4
21 14.05 С 6 30 км н/о +11.0 -5.5 31 +9 +9 1011.7 919.8
00 15.05 С 2 28 км ясно +12.3 -5.7 28 +12 +13 1012.1 929.4
03 15.05 Ю 3 27 км ясно +19.3 -6.3 17 +19 +29 1010.5 921.2
06 15.05 ЮЗ 3 26 км ясно +22.8 -6.1 14 +21 +37 комфорт 1006.7 918.7 +9.6
09 15.05 Ю 4 27 км ясно +26.4 -5.3 12 +24 +31 комфорт 1002.7 916.1
12 15.05 З 3 26 км ясно +26.6 -5.1 12 +24 +25 комфорт 1001.0 914.6
18 15.05 С 17
{25}
30 км ?/? +16.9 +1.0 34 +15 +15 1003.0 913.6 +27.0
21 15.05 С 20
{27}
30 км ?/? +14.1 +1.4 42 +10 +10 1003.2 913.0
00 16.05 С 20
{28}
30 км 9/9
[]
+13.2 +1.2 44 +9 +9 1004.8 914.2
03 16.05 С 20
{28}
30 км 3/3
[]
+17.4 +0.6 32 +15 +15 1004.7 915.3
06 16.05 С 20
{28}
29 км 3/3
[]
+19.5 0.0 27 +18 +18 1004.3 915.6 +13.0
09 16.05 С 21
{27}
30 км ясно +19.6 -2.7 22 +18 +18 1004.9 916.2
12 16.05 С 20
{30}
30 км 3/3 1500 м
[]
+15.6 -2.4 29 +13 +13 1005.7 915.7
18 16.05 С 19
{32}
30 км ?/? +12.9 -3.8 31 +9 +9 1006.7 915.8 +20.8
21 16.05 С 18
{29}
30 км ?/? +11.4 -5.6 30 +7 +7 1007.2 915.8
00 17.05 С 23
{30}
30 км 3/3
[]
+10.0 -7.7 28 +4 +4 1008.3 916.4
03 17.05 С 22
{32}
22 км 3/3
[]
+13.0 -4.6 29 +9 +9 1010.3 919.1
06 17.05 С 21
{32}
26 км ясно +15.5 -6.1 22 +12 +12 1010.6 920.1 +9.6
09 17.05 С 20
{33}
29 км 6/6
[]
+16.1 -5.6 22 +13 +13 1010.3 920.0
12 17.05 С 18
{33}
29 км 9/9
[]
+14.0 -6.2 24 +11 +11 1012.2 921.1
18 17.05 С 19
{28}
30 км ?/? +8.7 -8.3 29 +3 +3 1016.8 923.7 +17.0
21 17.05 С 19
{32}
30 км ?/? +7.0 -9.0 31 +1 +1 1018.5 924.7
00 18.05 С 17
{32}
30 км ясно +7.8 -8.7 30 +2 +2 1021.6 927.8
03 18.05 С 10 30 км ясно +12.1 -10.2 20 +9 +10 1023.8 931.1
06 18.05 С 10
{22}
30 км ясно +16.1 -14.4 11 +14 +15 1021.6 930.3 +6.7
09 18.05 С 9
{21}
30 км ясно +19.2 -19.3 6 +18 +19 1018.4 928.3
12 18.05 С 3 30 км ясно +20.1 -20.7 5 +19 +20 1017.3 927.6
18 18.05 В 4 29 км ?/? +12.7 -18.2 10 +12 +12 1020.4 928.2 +20.7
21 18.05 С 2 29 км н/о +9.9 -17.3 13 +9 +9 1021.2 928.1
00 19.05 С 5 27 км ясно +10.5 -15.9 14 +8 +9 1020.7 927.8
03 19.05 СЗ 2 29 км 3/3
[]
+16.8 -16.3 9 +17 +26 1020.9 929.9
06 19.05 ЮЗ 5 23 км 8/8
[]
+20.6 -16.4 7 +19 +21 1019.1 929.4 +7.2
09 19.05 З 5 25 км 9/9
[]
+23.3 -16.3 6 +20 +21 1016.2 927.5
12 19.05 З 4 27 км 9/9
[]
+22.7 -16.7 6 +20 +20 1015.7 933.2
18 19.05 С 4 28 км ?/? +15.0 -16.4 10 +14 +14 1015.4 924.4 +23.9

 

Местоположение метеостанции Цзяньфан (Синьцзян-Уйгурский автономный район, Китай): широта 43.22 долгота 91.73 высота над уровнем моря 792 м.

В архиве по умолчанию представлена погода в Цзяньфане за последнюю неделю. Архивные данные за месяц целиком и за предыдущие месяцы, начиная с января 2011 года, Вы можете получить, выбрав интересующий диапазон дат из раскрывающегося списка и нажав кнопку "Ввод!".


*Определитесь, кто Вы:
робот инопланетянин человек

Внимание! Время в таблицах - всемирное. Для получения местного времени необходимо прибавить поправку, которая равна 8 ч.

Смотрите также архив погоды в соседних городах и на ближайших метеорологических станциях:

Погода в Хами (Синьцзян-Уйгурский автономный район, Китай) (152 км)
Погода в Цитае (Синьцзян-Уйгурский автономный район, Китай) (195 км)
Погода в Турфане (Синьцзян-Уйгурский автономный район, Китай) (208 км)
Погода в Бейта Шан (Синьцзян-Уйгурский автономный район, Китай) (258 км)
Погода в Наомаоху (Синьцзян-Уйгурский автономный район, Китай) (278 км)
Погода в Байтаге (Монголия) (323 км)
Погода в Урумчи (Синьцзян-Уйгурский автономный район, Китай) (335 км)
Погода в Тонхиле (Монголия) (385 км)
Погода в Жаргаланте (Монголия) (415 км)
Погода в Дуньхуане (Ганьсу, Китай) (420 км)

Пояснения к столбцам:

Ветер - указаны скорость ветра в м/с - средняя за 10 мин, порывы в срок и между сроками (в фигурных скобках) и направление, откуда дует ветер: С - северный, СВ - северо-восточный, В - восточный, ЮВ - юго-восточный, Ю - южный, ЮЗ - юго-западный, З - западный, СЗ - северо-западный.
Видимость - горизонтальная дальность видимости в метрах или километрах. При видимости от 1 до 10 км при отсутствии осадков обычно наблюдается дымка, при ухудшении видимости до 1 км и менее - туман. В сухую погоду видимость может ухудшаться дымом, пылью или мглою.
Явления - указаны атмосферные явления, наблюдавшиеся в срок или в последний час перед сроком; фигурными скобками обозначены явления, наблюдавшиеся между сроками (за 1-3 часа до срока); квадратными скобками обозначены град или гололедные отложения с указанием их диаметра в мм.
Облачность - указаны через наклонную черту общая и нижняя облачность в баллах и высота нижней границы облаков в метрах; квадратными скобками обозначены формы облаков: Ci - перистые, Cs - перисто-слоистые, Cc - перисто-кучевые, Ac - высококучевые, As - высокослоистые, Sc - слоисто-кучевые, Ns - слоисто-дождевые, Cu - кучевые, Cb - кучево-дождевые. Подробнее классификацию облаков см. в Атласе облаков (PDF).
T - Температура воздуха - температура, измеренная на высоте 2 м над землей.
Td - Температура точки росы - температура, при понижении до которой содержащийся в воздухе водяной пар достигнет насыщения.
f - Относительная влажность воздуха - влажноcть воздуха, измеренная на высоте 2 м над землей.
Te - Эффективная температура - температура, которую ощущает одетый по сезону человек в тени. Характеристика душности погоды. При расчете учитывается влияние влажности воздуха и скорости ветра на теплоощущения человека.
Tes - Эффективная температура на солнце - температура, которую ощущает человек, с поправкой на солнечный нагрев. Характеристика знойности погоды. Зависит от высоты солнца над горизонтом, облачности и скорости ветра. Ночью, в пасмурную погоду, а также при ветре 12 м/с и более поправка равна нулю.
P - Атмосферное давление - приведенное к уровню моря атмосферное давление.
Po - Атмосферное давление - измеренное на уровне метеостанции атмосферное давление.
Tmin - Минимальная температура - минимум температуры воздуха на высоте 2 м над землей.
Tmax - Максимальная температура - максимум температуры воздуха на высоте 2 м над землей.
R - Количество осадков - Количество выпавших осадков за период времени, мм. При наведении курсора мыши на число - период времени, за который выпало указанное количество осадков.
R24 - Количество осадков - Количество выпавших осадков за 24 часа, мм.
S - Снежный покров - Высота снежного покрова, см. При наведении курсора мыши на число - состояние снежного покрова и степень покрытия местности в баллах.